sat.trackr.live / text

‹ back to catalog

STARLINK-3606

NORAD 51807 · 2022-017AR

PAYLOAD ACTIVE UNKNOWN

§ Identity

Operator
Country
US
Launch date
2022-02-25
Launch site
AFWTR
Launch vehicle
Mass (kg)
RCS (m²)

Purposes: comms

External: N2YO · Heavens-Above · Gunter

§ Orbital elements

Epoch: 2026-09-19T11:34:04.586592Z

Period
93.85 min
Inclination
53.1629°
Eccentricity
0.0001217
Mean motion
15.34387090 rev/d
Perigee alt
461.9 km
Apogee alt
463.6 km
Semi-major
6,840.9 km
B*
1.9672e-5
RAAN
176.1317°
Arg perigee
94.6612°
Mean anomaly
265.4530°
Rev number
25,354

§ Raw data

STARLINK-36061 51807U 22017AR  26262.48199753  .00000288  00000+0  19672-4 0  99932 51807  53.1629 176.1317 0001217  94.6612 265.4530 15.34387090253548

JSON: /api/v1/satellites/51807 · /tle

For live sub-satellite position, see the globe view (requires WebGL).

§ Visibility from observer

Set your observer location to see the next 7 days of passes ≥ 10°. The values pass through the URL so the page stays shareable.

No JS? Fill the form by hand. The geolocation button needs JavaScript.